Time,TemperatureF,DewpointF,PressureIn,WindDirection,WindDirectionDegrees,WindSpeedMPH,WindSpeedGustMPH,Humidity,HourlyPrecipIn,Conditions,Clouds,dailyrainin,SoftwareType,DateUTC
2013-03-27 00:00:00,34.3,25.2,30.15,WNW,292,0.0,3.1,69,0.00,,,0.00,WUHU21623XXSP,2013-03-27 05:00:00,
2013-03-27 00:05:00,34.3,25.5,30.15,WNW,292,0.0,3.1,70,0.00,,,0.00,WUHU21623XXSP,2013-03-27 05:05:00,
2013-03-27 00:10:00,34.3,25.2,30.15,WNW,292,0.0,2.9,69,0.00,,,0.00,WUHU21623XXSP,2013-03-27 05:10:00,
2013-03-27 00:15:00,34.3,25.2,30.16,West,270,0.0,2.9,69,0.00,,,0.00,WUHU21623XXSP,2013-03-27 05:15:00,
2013-03-27 00:20:00,34.3,25.2,30.16,WNW,292,0.0,2.5,69,0.00,,,0.00,WUHU21623XXSP,2013-03-27 05:20:00,
2013-03-27 00:25:00,34.3,24.8,30.16,NW,315,0.0,3.8,68,0.00,,,0.00,WUHU21623XXSP,2013-03-27 05:25:00,
2013-03-27 00:30:00,34.3,24.8,30.16,West,270,1.6,3.8,68,0.00,,,0.00,WUHU21623XXSP,2013-03-27 05:30:00,
2013-03-27 00:35:00,34.3,24.8,30.16,WNW,292,0.0,2.9,68,0.00,,,0.00,WUHU21623XXSP,2013-03-27 05:35:00,
2013-03-27 00:40:00,34.3,24.8,30.16,West,270,0.0,2.9,68,0.00,,,0.00,WUHU21623XXSP,2013-03-27 05:40:00,
2013-03-27 00:45:00,34.3,24.8,30.16,NNW,337,0.0,2.9,68,0.00,,,0.00,WUHU21623XXSP,2013-03-27 05:45:00,
2013-03-27 00:50:00,34.3,25.2,30.16,WNW,292,0.0,2.5,69,0.00,,,0.00,WUHU21623XXSP,2013-03-27 05:50:00,
2013-03-27 00:55:00,34.3,25.2,30.16,WNW,292,0.0,2.2,69,0.00,,,0.00,WUHU21623XXSP,2013-03-27 05:55:00,
2013-03-27 01:00:00,34.2,25.0,30.16,West,270,1.6,2.2,69,0.00,,,0.00,WUHU21623XXSP,2013-03-27 06:00:00,
2013-03-27 01:05:00,34.2,25.0,30.16,WNW,292,0.0,1.6,69,0.00,,,0.00,WUHU21623XXSP,2013-03-27 06:05:00,
2013-03-27 01:10:00,34.0,24.8,30.16,NNW,337,0.0,2.5,69,0.00,,,0.00,WUHU21623XXSP,2013-03-27 06:10:00,
2013-03-27 01:15:00,33.8,24.6,30.16,NNW,337,0.0,2.5,69,0.00,,,0.00,WUHU21623XXSP,2013-03-27 06:15:00,
2013-03-27 01:20:00,33.6,24.5,30.16,NW,315,0.0,2.2,69,0.00,,,0.00,WUHU21623XXSP,2013-03-27 06:20:00,
2013-03-27 01:25:00,33.6,24.8,30.16,North,0,1.6,2.2,70,0.00,,,0.00,WUHU21623XXSP,2013-03-27 06:25:00,
2013-03-27 01:30:00,33.6,24.8,30.16,NNW,337,0.0,2.0,70,0.00,,,0.00,WUHU21623XXSP,2013-03-27 06:30:00,
2013-03-27 01:35:00,33.6,25.1,30.16,WNW,292,0.7,3.8,71,0.00,,,0.00,WUHU21623XXSP,2013-03-27 06:35:00,
2013-03-27 01:40:00,33.6,25.1,30.16,WNW,292,0.0,3.8,71,0.00,,,0.00,WUHU21623XXSP,2013-03-27 06:40:00,
2013-03-27 01:45:00,33.6,25.1,30.16,West,270,0.0,2.5,71,0.00,,,0.00,WUHU21623XXSP,2013-03-27 06:45:00,
2013-03-27 01:50:00,33.4,25.0,30.16,NW,315,0.0,2.2,71,0.00,,,0.00,WUHU21623XXSP,2013-03-27 06:50:00,
2013-03-27 01:55:00,33.4,25.0,30.16,NW,315,1.3,1.8,70,0.00,,,0.00,WUHU21623XXSP,2013-03-27 06:55:00,
2013-03-27 02:00:00,33.4,25.0,30.16,WNW,292,0.0,1.3,71,0.00,,,0.00,WUHU21623XXSP,2013-03-27 07:00:00,
2013-03-27 02:05:00,33.4,25.0,30.16,West,270,0.0,2.0,71,0.00,,,0.00,WUHU21623XXSP,2013-03-27 07:05:00,
2013-03-27 02:10:00,33.4,25.0,30.17,NW,315,0.0,2.0,71,0.00,,,0.00,WUHU21623XXSP,2013-03-27 07:10:00,
2013-03-27 02:15:00,33.3,25.1,30.16,WNW,292,0.0,1.8,72,0.00,,,0.00,WUHU21623XXSP,2013-03-27 07:15:00,
2013-03-27 02:20:00,33.3,25.1,30.16,West,270,0.0,0.0,72,0.00,,,0.00,WUHU21623XXSP,2013-03-27 07:20:00,
2013-03-27 02:25:00,33.1,25.0,30.16,NW,315,0.0,0.0,72,0.00,,,0.00,WUHU21623XXSP,2013-03-27 07:25:00,
2013-03-27 02:30:00,33.1,25.0,30.16,West,270,2.0,2.2,72,0.00,,,0.00,WUHU21623XXSP,2013-03-27 07:30:00,
2013-03-27 02:35:00,33.1,25.1,30.17,NW,315,0.0,2.2,72,0.00,,,0.00,WUHU21623XXSP,2013-03-27 07:35:00,
2013-03-27 02:40:00,33.3,25.1,30.16,West,270,1.3,2.2,72,0.00,,,0.00,WUHU21623XXSP,2013-03-27 07:40:00,
2013-03-27 02:45:00,33.3,25.1,30.16,WNW,292,0.0,2.2,72,0.00,,,0.00,WUHU21623XXSP,2013-03-27 07:45:00,
2013-03-27 02:50:00,33.3,25.1,30.16,West,270,1.1,2.0,72,0.00,,,0.00,WUHU21623XXSP,2013-03-27 07:50:00,
2013-03-27 02:55:00,33.3,25.1,30.17,West,270,0.0,2.5,72,0.00,,,0.00,WUHU21623XXSP,2013-03-27 07:55:00,
2013-03-27 03:00:00,33.3,25.1,30.17,West,270,0.0,3.4,72,0.00,,,0.00,WUHU21623XXSP,2013-03-27 08:00:00,
2013-03-27 03:05:00,33.3,25.1,30.16,West,270,0.0,3.4,72,0.00,,,0.00,WUHU21623XXSP,2013-03-27 08:05:00,
2013-03-27 03:10:00,33.3,25.1,30.16,West,270,1.3,2.9,72,0.00,,,0.00,WUHU21623XXSP,2013-03-27 08:10:00,
2013-03-27 03:15:00,33.3,25.1,30.17,NW,315,1.3,2.2,72,0.00,,,0.00,WUHU21623XXSP,2013-03-27 08:15:00,
2013-03-27 03:20:00,33.1,25.0,30.16,West,270,0.0,2.0,72,0.00,,,0.00,WUHU21623XXSP,2013-03-27 08:20:00,
2013-03-27 03:25:00,33.1,25.0,30.17,NW,315,0.0,2.0,72,0.00,,,0.00,WUHU21623XXSP,2013-03-27 08:25:00,
2013-03-27 03:30:00,33.1,25.0,30.17,WNW,292,0.0,1.3,72,0.00,,,0.00,WUHU21623XXSP,2013-03-27 08:30:00,
2013-03-27 03:35:00,33.1,25.0,30.16,NW,315,0.0,1.3,72,0.00,,,0.00,WUHU21623XXSP,2013-03-27 08:35:00,
2013-03-27 03:40:00,32.9,24.8,30.16,West,270,0.0,1.1,72,0.00,,,0.00,WUHU21623XXSP,2013-03-27 08:40:00,
2013-03-27 03:45:00,32.9,24.8,30.17,WNW,292,0.0,3.1,72,0.00,,,0.00,WUHU21623XXSP,2013-03-27 08:45:00,
2013-03-27 03:50:00,32.9,24.8,30.16,NW,315,0.0,3.1,72,0.00,,,0.00,WUHU21623XXSP,2013-03-27 08:50:00,
2013-03-27 03:55:00,32.9,24.8,30.17,NW,315,0.0,1.8,72,0.00,,,0.00,WUHU21623XXSP,2013-03-27 08:55:00,
2013-03-27 04:00:00,32.9,24.8,30.17,WNW,292,0.0,1.8,72,0.00,,,0.00,WUHU21623XXSP,2013-03-27 09:00:00,
2013-03-27 04:05:00,32.7,25.0,30.17,West,270,0.0,0.0,73,0.00,,,0.00,WUHU21623XXSP,2013-03-27 09:05:00,
2013-03-27 04:10:00,32.7,25.0,30.17,West,270,0.0,1.3,73,0.00,,,0.00,WUHU21623XXSP,2013-03-27 09:10:00,
2013-03-27 04:15:00,32.7,25.0,30.17,West,270,1.3,2.0,73,0.00,,,0.00,WUHU21623XXSP,2013-03-27 09:15:00,
2013-03-27 04:20:00,32.7,25.0,30.17,WSW,247,0.0,2.0,73,0.00,,,0.00,WUHU21623XXSP,2013-03-27 09:20:00,
2013-03-27 04:25:00,32.7,25.0,30.17,West,270,0.0,1.3,73,0.00,,,0.00,WUHU21623XXSP,2013-03-27 09:25:00,
2013-03-27 04:30:00,32.7,25.0,30.17,WNW,292,0.0,1.8,73,0.00,,,0.00,WUHU21623XXSP,2013-03-27 09:30:00,
2013-03-27 04:35:00,32.7,25.0,30.17,NW,315,0.0,1.8,73,0.00,,,0.00,WUHU21623XXSP,2013-03-27 09:35:00,
2013-03-27 04:40:00,32.7,25.0,30.17,WNW,292,0.0,0.0,73,0.00,,,0.00,WUHU21623XXSP,2013-03-27 09:40:00,
2013-03-27 04:45:00,32.5,24.8,30.17,West,270,0.0,0.0,73,0.00,,,0.00,WUHU21623XXSP,2013-03-27 09:45:00,
2013-03-27 04:50:00,32.5,24.8,30.17,NNW,337,0.0,0.0,73,0.00,,,0.00,WUHU21623XXSP,2013-03-27 09:50:00,
2013-03-27 04:55:00,32.5,24.8,30.17,WNW,292,0.0,1.3,73,0.00,,,0.00,WUHU21623XXSP,2013-03-27 09:55:00,
2013-03-27 05:00:00,32.5,25.1,30.17,NW,315,0.0,1.3,74,0.00,,,0.00,WUHU21623XXSP,2013-03-27 10:00:00,
2013-03-27 05:05:00,32.4,25.0,30.17,West,270,0.0,0.0,74,0.00,,,0.00,WUHU21623XXSP,2013-03-27 10:05:00,
2013-03-27 05:10:00,32.2,24.8,30.17,West,270,0.0,0.0,74,0.00,,,0.00,WUHU21623XXSP,2013-03-27 10:10:00,
2013-03-27 05:15:00,32.2,24.8,30.17,West,270,0.0,0.0,74,0.00,,,0.00,WUHU21623XXSP,2013-03-27 10:15:00,
2013-03-27 05:20:00,32.2,24.8,30.17,WNW,292,0.0,0.0,74,0.00,,,0.00,WUHU21623XXSP,2013-03-27 10:20:00,
2013-03-27 05:25:00,32.2,24.8,30.17,WNW,292,0.0,0.0,74,0.00,,,0.00,WUHU21623XXSP,2013-03-27 10:25:00,
2013-03-27 05:30:00,31.8,24.5,30.17,WNW,292,0.0,0.0,74,0.00,,,0.00,WUHU21623XXSP,2013-03-27 10:30:00,
2013-03-27 05:35:00,31.8,24.8,30.17,WNW,292,0.0,0.0,75,0.00,,,0.00,WUHU21623XXSP,2013-03-27 10:35:00,
2013-03-27 05:40:00,31.8,24.8,30.17,NNW,337,0.0,0.0,75,0.00,,,0.00,WUHU21623XXSP,2013-03-27 10:40:00,
2013-03-27 05:45:00,31.8,24.8,30.17,North,0,0.0,0.0,75,0.00,,,0.00,WUHU21623XXSP,2013-03-27 10:45:00,
2013-03-27 05:50:00,31.8,24.8,30.17,North,0,0.0,0.0,75,0.00,,,0.00,WUHU21623XXSP,2013-03-27 10:50:00,
2013-03-27 05:55:00,31.6,24.6,30.17,WNW,292,0.0,2.5,75,0.00,,,0.00,WUHU21623XXSP,2013-03-27 10:55:00,
2013-03-27 06:00:00,31.8,24.8,30.17,NW,315,0.0,2.5,75,0.00,,,0.00,WUHU21623XXSP,2013-03-27 11:00:00,
2013-03-27 06:05:00,31.8,24.8,30.17,NW,315,0.0,1.6,75,0.00,,,0.00,WUHU21623XXSP,2013-03-27 11:05:00,
2013-03-27 06:10:00,31.8,24.8,30.18,West,270,0.0,1.6,75,0.00,,,0.00,WUHU21623XXSP,2013-03-27 11:10:00,
2013-03-27 06:15:00,31.8,24.8,30.18,West,270,0.7,1.3,75,0.00,,,0.00,WUHU21623XXSP,2013-03-27 11:15:00,
2013-03-27 06:20:00,31.8,24.8,30.18,West,270,0.0,1.6,75,0.00,,,0.00,WUHU21623XXSP,2013-03-27 11:20:00,
2013-03-27 06:25:00,31.8,25.1,30.18,WNW,292,0.0,1.6,76,0.00,,,0.00,WUHU21623XXSP,2013-03-27 11:25:00,
2013-03-27 06:30:00,31.8,25.1,30.18,NW,315,0.0,0.0,76,0.00,,,0.00,WUHU21623XXSP,2013-03-27 11:30:00,
2013-03-27 06:35:00,31.6,24.9,30.18,NW,315,0.0,0.0,76,0.00,,,0.00,WUHU21623XXSP,2013-03-27 11:35:00,
2013-03-27 06:40:00,31.6,24.9,30.18,WNW,292,0.0,0.9,76,0.00,,,0.00,WUHU21623XXSP,2013-03-27 11:40:00,
2013-03-27 06:45:00,31.8,25.1,30.19,WNW,292,0.0,0.9,76,0.00,,,0.00,WUHU21623XXSP,2013-03-27 11:45:00,
2013-03-27 06:50:00,31.8,25.1,30.19,NNW,337,0.0,3.6,76,0.00,,,0.00,WUHU21623XXSP,2013-03-27 11:50:00,
2013-03-27 06:55:00,31.8,25.1,30.19,WNW,292,1.6,3.6,76,0.00,,,0.00,WUHU21623XXSP,2013-03-27 11:55:00,
2013-03-27 07:00:00,31.8,25.1,30.19,West,270,0.0,3.1,76,0.00,,,0.00,WUHU21623XXSP,2013-03-27 12:00:00,
2013-03-27 07:05:00,32.2,25.5,30.19,West,270,1.1,3.1,76,0.00,,,0.00,WUHU21623XXSP,2013-03-27 12:05:00,
2013-03-27 07:10:00,32.2,25.5,30.19,NW,315,0.0,2.5,76,0.00,,,0.00,WUHU21623XXSP,2013-03-27 12:10:00,
2013-03-27 07:15:00,32.2,25.5,30.19,WNW,292,0.0,2.0,76,0.00,,,0.00,WUHU21623XXSP,2013-03-27 12:15:00,
2013-03-27 07:20:00,32.4,25.6,30.19,West,270,0.0,2.0,76,0.00,,,0.00,WUHU21623XXSP,2013-03-27 12:20:00,
2013-03-27 07:25:00,32.5,25.8,30.19,WNW,292,1.8,2.0,76,0.00,,,0.00,WUHU21623XXSP,2013-03-27 12:25:00,
2013-03-27 07:30:00,32.5,25.8,30.19,WNW,292,0.0,3.6,76,0.00,,,0.00,WUHU21623XXSP,2013-03-27 12:30:00,
2013-03-27 07:35:00,32.7,26.0,30.20,NNW,337,1.8,3.6,76,0.00,,,0.00,WUHU21623XXSP,2013-03-27 12:35:00,
2013-03-27 07:40:00,32.7,26.0,30.20,NW,315,0.0,2.0,76,0.00,,,0.00,WUHU21623XXSP,2013-03-27 12:40:00,
2013-03-27 07:45:00,33.1,26.3,30.20,NNW,337,0.0,2.7,76,0.00,,,0.00,WUHU21623XXSP,2013-03-27 12:45:00,
2013-03-27 07:50:00,33.4,26.6,30.20,WNW,292,0.0,2.7,76,0.00,,,0.00,WUHU21623XXSP,2013-03-27 12:50:00,
2013-03-27 07:55:00,33.4,26.3,30.20,WNW,292,2.0,3.1,75,0.00,,,0.00,WUHU21623XXSP,2013-03-27 12:55:00,
2013-03-27 08:00:00,33.6,26.4,30.20,NNW,337,1.1,3.1,75,0.00,,,0.00,WUHU21623XXSP,2013-03-27 13:00:00,
2013-03-27 08:05:00,34.0,26.8,30.21,WNW,292,0.0,1.8,75,0.00,,,0.00,WUHU21623XXSP,2013-03-27 13:05:00,
2013-03-27 08:10:00,34.3,27.1,30.21,NNW,337,0.0,2.2,75,0.00,,,0.00,WUHU21623XXSP,2013-03-27 13:10:00,
2013-03-27 08:15:00,34.5,27.0,30.21,North,0,0.0,3.1,74,0.00,,,0.00,WUHU21623XXSP,2013-03-27 13:15:00,
2013-03-27 08:20:00,34.7,26.9,30.21,NW,315,2.9,5.8,73,0.00,,,0.00,WUHU21623XXSP,2013-03-27 13:20:00,
2013-03-27 08:25:00,34.7,26.9,30.21,WNW,292,2.5,5.8,73,0.00,,,0.00,WUHU21623XXSP,2013-03-27 13:25:00,
2013-03-27 08:30:00,34.9,26.7,30.21,NW,315,2.9,4.5,72,0.00,,,0.00,WUHU21623XXSP,2013-03-27 13:30:00,
2013-03-27 08:35:00,35.4,27.2,30.21,NW,315,2.9,4.5,72,0.00,,,0.00,WUHU21623XXSP,2013-03-27 13:35:00,
2013-03-27 08:40:00,35.4,26.9,30.21,NE,45,2.2,4.7,71,0.00,,,0.00,WUHU21623XXSP,2013-03-27 13:40:00,
2013-03-27 08:45:00,36.0,27.5,30.21,NNW,337,1.6,4.7,71,0.00,,,0.00,WUHU21623XXSP,2013-03-27 13:45:00,
2013-03-27 08:50:00,36.3,27.5,30.21,NNW,337,3.4,4.5,70,0.00,,,0.00,WUHU21623XXSP,2013-03-27 13:50:00,
2013-03-27 08:55:00,36.1,26.9,30.21,NNW,337,0.0,5.1,69,0.00,,,0.00,WUHU21623XXSP,2013-03-27 13:55:00,
2013-03-27 09:00:00,36.7,27.1,30.21,NW,315,4.0,5.1,68,0.00,,,0.00,WUHU21623XXSP,2013-03-27 14:00:00,
2013-03-27 09:05:00,36.9,27.3,30.21,NNW,337,1.6,5.1,68,0.00,,,0.00,WUHU21623XXSP,2013-03-27 14:05:00,
2013-03-27 09:10:00,37.4,27.4,30.21,NW,315,3.6,4.5,67,0.00,,,0.00,WUHU21623XXSP,2013-03-27 14:10:00,
2013-03-27 09:15:00,37.6,27.2,30.21,WNW,292,1.8,4.7,66,0.00,,,0.00,WUHU21623XXSP,2013-03-27 14:15:00,
2013-03-27 09:20:00,37.9,27.6,30.21,NNE,22,2.0,4.7,66,0.00,,,0.00,WUHU21623XXSP,2013-03-27 14:20:00,
2013-03-27 09:25:00,38.1,26.6,30.21,North,0,2.7,6.3,63,0.00,,,0.00,WUHU21623XXSP,2013-03-27 14:25:00,
2013-03-27 09:30:00,38.3,26.7,30.21,North,0,4.0,6.3,63,0.00,,,0.00,WUHU21623XXSP,2013-03-27 14:30:00,
2013-03-27 09:35:00,39.0,27.4,30.21,NW,315,2.0,4.5,63,0.00,,,0.00,WUHU21623XXSP,2013-03-27 14:35:00,
2013-03-27 09:40:00,39.6,27.5,30.21,WSW,247,4.5,4.5,62,0.00,,,0.00,WUHU21623XXSP,2013-03-27 14:40:00,
2013-03-27 09:45:00,39.7,27.3,30.21,WSW,247,0.0,4.9,61,0.00,,,0.00,WUHU21623XXSP,2013-03-27 14:45:00,
2013-03-27 09:50:00,40.5,28.1,30.21,NNW,337,2.0,4.9,61,0.00,,,0.00,WUHU21623XXSP,2013-03-27 14:50:00,
2013-03-27 09:55:00,40.8,27.6,30.21,NW,315,2.5,4.0,59,0.00,,,0.00,WUHU21623XXSP,2013-03-27 14:55:00,
2013-03-27 10:00:00,40.6,27.4,30.21,WNW,292,1.6,4.0,59,0.00,,,0.00,WUHU21623XXSP,2013-03-27 15:00:00,
2013-03-27 10:05:00,41.4,27.2,30.21,WNW,292,0.0,4.7,57,0.00,,,0.00,WUHU21623XXSP,2013-03-27 15:05:00,
2013-03-27 10:10:00,41.4,27.2,30.21,North,0,2.5,4.7,57,0.00,,,0.00,WUHU21623XXSP,2013-03-27 15:10:00,
2013-03-27 10:15:00,41.7,26.7,30.21,NW,315,3.8,4.5,55,0.00,,,0.00,WUHU21623XXSP,2013-03-27 15:15:00,
2013-03-27 10:20:00,42.4,27.8,30.21,NNW,337,2.2,4.3,56,0.00,,,0.00,WUHU21623XXSP,2013-03-27 15:20:00,
2013-03-27 10:25:00,42.4,27.3,30.21,NNW,337,5.1,5.6,55,0.00,,,0.00,WUHU21623XXSP,2013-03-27 15:25:00,
2013-03-27 10:30:00,42.6,26.2,30.21,NNE,22,3.6,5.6,52,0.00,,,0.00,WUHU21623XXSP,2013-03-27 15:30:00,
2013-03-27 10:35:00,42.6,26.6,30.22,WNW,292,3.8,6.9,53,0.00,,,0.00,WUHU21623XXSP,2013-03-27 15:35:00,
2013-03-27 10:40:00,42.6,26.2,30.21,North,0,3.8,6.9,52,0.00,,,0.00,WUHU21623XXSP,2013-03-27 15:40:00,
2013-03-27 10:45:00,42.8,25.0,30.22,NNW,337,5.4,8.9,49,0.00,,,0.00,WUHU21623XXSP,2013-03-27 15:45:00,
2013-03-27 10:50:00,43.2,25.3,30.22,NNW,337,4.3,8.9,49,0.00,,,0.00,WUHU21623XXSP,2013-03-27 15:50:00,
2013-03-27 10:55:00,43.0,25.7,30.22,NNW,337,4.3,6.3,50,0.00,,,0.00,WUHU21623XXSP,2013-03-27 15:55:00,
2013-03-27 11:00:00,43.5,25.6,30.22,NNW,337,7.6,7.6,49,0.00,,,0.00,WUHU21623XXSP,2013-03-27 16:00:00,
2013-03-27 11:05:00,43.3,25.1,30.22,NW,315,4.5,8.5,47,0.00,,,0.00,WUHU21623XXSP,2013-03-27 16:05:00,
2013-03-27 11:10:00,43.3,24.4,30.22,NW,315,4.5,8.5,47,0.00,,,0.00,WUHU21623XXSP,2013-03-27 16:10:00,
2013-03-27 11:15:00,43.5,24.0,30.22,NE,45,6.0,6.0,46,0.00,,,0.00,WUHU21623XXSP,2013-03-27 16:15:00,
2013-03-27 11:20:00,43.9,22.7,30.22,North,0,6.0,6.0,43,0.00,,,0.00,WUHU21623XXSP,2013-03-27 16:20:00,
2013-03-27 11:25:00,43.5,21.8,30.22,NNW,337,4.5,6.3,42,0.00,,,0.00,WUHU21623XXSP,2013-03-27 16:25:00,
2013-03-27 11:30:00,44.1,23.4,30.22,NNW,337,6.9,6.9,44,0.00,,,0.00,WUHU21623XXSP,2013-03-27 16:30:00,
2013-03-27 11:35:00,44.4,23.7,30.21,WNW,292,4.0,6.9,44,0.00,,,0.00,WUHU21623XXSP,2013-03-27 16:35:00,
2013-03-27 11:40:00,43.5,22.4,30.22,NNW,337,1.6,7.6,43,0.00,,,0.00,WUHU21623XXSP,2013-03-27 16:40:00,
2013-03-27 11:45:00,44.1,21.8,30.22,West,270,7.2,7.6,41,0.00,,,0.00,WUHU21623XXSP,2013-03-27 16:45:00,
2013-03-27 11:50:00,43.7,22.5,30.22,WNW,292,4.3,8.5,43,0.00,,,0.00,WUHU21623XXSP,2013-03-27 16:50:00,
2013-03-27 11:55:00,43.9,22.2,30.22,NW,315,6.3,10.1,42,0.00,,,0.00,WUHU21623XXSP,2013-03-27 16:55:00,
2013-03-27 12:00:00,44.2,22.3,30.22,West,270,5.4,10.1,42,0.00,,,0.00,WUHU21623XXSP,2013-03-27 17:00:00,
2013-03-27 12:05:00,44.4,20.9,30.21,NNW,337,4.3,9.2,39,0.00,,,0.00,WUHU21623XXSP,2013-03-27 17:05:00,
2013-03-27 12:10:00,44.4,21.6,30.21,NNW,337,4.0,9.2,40,0.00,,,0.00,WUHU21623XXSP,2013-03-27 17:10:00,
2013-03-27 12:15:00,44.4,21.6,30.21,NW,315,2.0,6.9,40,0.00,,,0.00,WUHU21623XXSP,2013-03-27 17:15:00,
2013-03-27 12:20:00,45.0,22.1,30.21,NW,315,0.0,7.8,40,0.00,,,0.00,WUHU21623XXSP,2013-03-27 17:20:00,
2013-03-27 12:25:00,45.0,22.1,30.21,WNW,292,2.7,7.8,40,0.00,,,0.00,WUHU21623XXSP,2013-03-27 17:25:00,
2013-03-27 12:30:00,45.0,21.4,30.22,WNW,292,2.9,8.3,39,0.00,,,0.00,WUHU21623XXSP,2013-03-27 17:30:00,
2013-03-27 12:35:00,45.3,21.7,30.22,West,270,7.6,8.9,39,0.00,,,0.00,WUHU21623XXSP,2013-03-27 17:35:00,
2013-03-27 12:40:00,46.0,22.0,30.22,NNW,337,7.6,8.9,39,0.00,,,0.00,WUHU21623XXSP,2013-03-27 17:40:00,
2013-03-27 12:45:00,45.0,21.4,30.21,NW,315,4.9,7.8,39,0.00,,,0.00,WUHU21623XXSP,2013-03-27 17:45:00,
2013-03-27 12:50:00,44.4,22.1,30.22,NNW,337,5.1,7.8,41,0.00,,,0.00,WUHU21623XXSP,2013-03-27 17:50:00,
2013-03-27 12:55:00,43.5,21.3,30.21,NW,315,7.4,8.1,41,0.00,,,0.00,WUHU21623XXSP,2013-03-27 17:55:00,
2013-03-27 13:00:00,43.9,22.2,30.21,NW,315,3.4,8.1,42,0.00,,,0.00,WUHU21623XXSP,2013-03-27 18:00:00,
2013-03-27 13:05:00,45.1,23.3,30.21,WSW,247,3.1,9.4,42,0.00,,,0.00,WUHU21623XXSP,2013-03-27 18:05:00,
2013-03-27 13:10:00,45.7,22.7,30.21,West,270,4.5,9.4,40,0.00,,,0.00,WUHU21623XXSP,2013-03-27 18:10:00,
2013-03-27 13:15:00,45.3,22.9,30.21,NNW,337,6.0,8.7,41,0.00,,,0.00,WUHU21623XXSP,2013-03-27 18:15:00,
2013-03-27 13:20:00,45.7,22.7,30.21,NW,315,4.3,8.7,39,0.00,,,0.00,WUHU21623XXSP,2013-03-27 18:20:00,
2013-03-27 13:25:00,46.0,23.0,30.22,NW,315,3.6,7.4,40,0.00,,,0.00,WUHU21623XXSP,2013-03-27 18:25:00,
2013-03-27 13:30:00,45.0,22.6,30.21,NW,315,4.5,7.2,41,0.00,,,0.00,WUHU21623XXSP,2013-03-27 18:30:00,
2013-03-27 13:35:00,44.1,22.2,30.21,NNW,337,2.5,6.5,42,0.00,,,0.00,WUHU21623XXSP,2013-03-27 18:35:00,
2013-03-27 13:40:00,44.4,22.1,30.21,NE,45,1.3,8.3,41,0.00,,,0.00,WUHU21623XXSP,2013-03-27 18:40:00,
2013-03-27 13:45:00,44.1,22.9,30.21,NNW,337,3.1,10.3,43,0.00,,,0.00,WUHU21623XXSP,2013-03-27 18:45:00,
2013-03-27 13:50:00,44.4,23.2,30.21,WSW,247,0.7,10.5,43,0.00,,,0.00,WUHU21623XXSP,2013-03-27 18:50:00,
2013-03-27 13:55:00,45.0,23.1,30.21,WNW,292,1.3,10.5,42,0.00,,,0.00,WUHU21623XXSP,2013-03-27 18:55:00,
2013-03-27 14:00:00,45.1,22.2,30.20,West,270,2.0,6.3,40,0.00,,,0.00,WUHU21623XXSP,2013-03-27 19:00:00,
2013-03-27 14:05:00,45.3,22.4,30.20,WNW,292,1.8,8.1,40,0.00,,,0.00,WUHU21623XXSP,2013-03-27 19:05:00,
2013-03-27 14:10:00,43.5,21.8,30.20,WNW,292,2.0,8.1,42,0.00,,,0.00,WUHU21623XXSP,2013-03-27 19:10:00,
2013-03-27 14:15:00,43.3,22.2,30.21,NW,315,3.6,7.6,43,0.00,,,0.00,WUHU21623XXSP,2013-03-27 19:15:00,
2013-03-27 14:20:00,45.1,22.8,30.21,North,0,3.6,6.7,41,0.00,,,0.00,WUHU21623XXSP,2013-03-27 19:20:00,
2013-03-27 14:25:00,45.5,21.9,30.21,West,270,3.1,6.7,39,0.00,,,0.00,WUHU21623XXSP,2013-03-27 19:25:00,
2013-03-27 14:30:00,45.5,20.6,30.20,NW,315,6.0,7.6,37,0.00,,,0.00,WUHU21623XXSP,2013-03-27 19:30:00,
2013-03-27 14:35:00,45.3,20.4,30.20,NNW,337,7.4,8.1,37,0.00,,,0.00,WUHU21623XXSP,2013-03-27 19:35:00,
2013-03-27 14:40:00,45.3,20.4,30.20,West,270,2.5,8.1,37,0.00,,,0.00,WUHU21623XXSP,2013-03-27 19:40:00,
2013-03-27 14:45:00,45.5,21.2,30.20,NNW,337,2.0,6.3,38,0.00,,,0.00,WUHU21623XXSP,2013-03-27 19:45:00,
2013-03-27 14:50:00,45.5,21.2,30.20,WNW,292,9.6,9.6,38,0.00,,,0.00,WUHU21623XXSP,2013-03-27 19:50:00,
2013-03-27 14:55:00,45.3,21.1,30.19,NNW,337,6.7,9.6,38,0.00,,,0.00,WUHU21623XXSP,2013-03-27 19:55:00,
2013-03-27 15:00:00,45.5,21.2,30.20,North,0,2.9,9.8,38,0.00,,,0.00,WUHU21623XXSP,2013-03-27 20:00:00,
2013-03-27 15:05:00,45.1,20.9,30.19,West,270,5.1,9.8,38,0.00,,,0.00,WUHU21623XXSP,2013-03-27 20:05:00,
2013-03-27 15:10:00,45.7,22.0,30.20,West,270,6.7,9.2,39,0.00,,,0.00,WUHU21623XXSP,2013-03-27 20:10:00,
2013-03-27 15:15:00,45.1,21.6,30.19,West,270,5.6,8.5,39,0.00,,,0.00,WUHU21623XXSP,2013-03-27 20:15:00,
2013-03-27 15:20:00,44.6,20.4,30.19,WSW,247,5.8,11.6,38,0.00,,,0.00,WUHU21623XXSP,2013-03-27 20:20:00,
2013-03-27 15:25:00,45.3,21.1,30.19,SSE,157,0.7,11.6,38,0.00,,,0.00,WUHU21623XXSP,2013-03-27 20:25:00,
2013-03-27 15:30:00,45.1,20.9,30.19,NW,315,8.3,10.7,38,0.00,,,0.00,WUHU21623XXSP,2013-03-27 20:30:00,
2013-03-27 15:35:00,45.5,21.9,30.19,West,270,4.9,8.7,39,0.00,,,0.00,WUHU21623XXSP,2013-03-27 20:35:00,
2013-03-27 15:40:00,45.1,20.9,30.19,West,270,8.3,9.6,38,0.00,,,0.00,WUHU21623XXSP,2013-03-27 20:40:00,
2013-03-27 15:45:00,45.0,20.1,30.19,North,0,3.1,9.6,37,0.00,,,0.00,WUHU21623XXSP,2013-03-27 20:45:00,
2013-03-27 15:50:00,45.1,21.6,30.19,WNW,292,2.5,8.7,39,0.00,,,0.00,WUHU21623XXSP,2013-03-27 20:50:00,
2013-03-27 15:55:00,46.0,21.7,30.19,WNW,292,2.9,6.0,38,0.00,,,0.00,WUHU21623XXSP,2013-03-27 20:55:00,
2013-03-27 16:00:00,44.6,21.1,30.19,WSW,247,6.3,8.5,39,0.00,,,0.00,WUHU21623XXSP,2013-03-27 21:00:00,
2013-03-27 16:05:00,44.2,21.4,30.19,West,270,4.3,8.5,40,0.00,,,0.00,WUHU21623XXSP,2013-03-27 21:05:00,
2013-03-27 16:10:00,44.8,21.9,30.19,West,270,8.9,8.9,40,0.00,,,0.00,WUHU21623XXSP,2013-03-27 21:10:00,
2013-03-27 16:15:00,44.4,22.1,30.19,West,270,5.6,8.9,41,0.00,,,0.00,WUHU21623XXSP,2013-03-27 21:15:00,
2013-03-27 16:20:00,45.1,22.8,30.19,West,270,5.4,7.6,41,0.00,,,0.00,WUHU21623XXSP,2013-03-27 21:20:00,
2013-03-27 16:25:00,44.8,21.9,30.19,WNW,292,4.5,8.7,40,0.00,,,0.00,WUHU21623XXSP,2013-03-27 21:25:00,
2013-03-27 16:30:00,44.4,22.1,30.19,WSW,247,6.0,8.7,41,0.00,,,0.00,WUHU21623XXSP,2013-03-27 21:30:00,
2013-03-27 16:35:00,44.2,22.0,30.19,West,270,3.8,9.6,41,0.00,,,0.00,WUHU21623XXSP,2013-03-27 21:35:00,
2013-03-27 16:40:00,44.2,22.0,30.19,West,270,2.0,9.6,41,0.00,,,0.00,WUHU21623XXSP,2013-03-27 21:40:00,
2013-03-27 16:45:00,44.4,22.1,30.19,West,270,4.5,8.5,41,0.00,,,0.00,WUHU21623XXSP,2013-03-27 21:45:00,
2013-03-27 16:50:00,44.4,22.1,30.19,WSW,247,3.4,7.8,41,0.00,,,0.00,WUHU21623XXSP,2013-03-27 21:50:00,
2013-03-27 16:55:00,44.2,22.0,30.19,WSW,247,4.7,8.1,41,0.00,,,0.00,WUHU21623XXSP,2013-03-27 21:55:00,
2013-03-27 17:00:00,43.9,22.2,30.19,WSW,247,5.4,8.9,42,0.00,,,0.00,WUHU21623XXSP,2013-03-27 22:00:00,
2013-03-27 17:05:00,44.2,22.5,30.19,West,270,5.1,8.9,42,0.00,,,0.00,WUHU21623XXSP,2013-03-27 22:05:00,
2013-03-27 17:10:00,43.9,21.6,30.19,West,270,3.6,7.8,41,0.00,,,0.00,WUHU21623XXSP,2013-03-27 22:10:00,
2013-03-27 17:15:00,44.2,22.0,30.19,West,270,6.5,7.8,41,0.00,,,0.00,WUHU21623XXSP,2013-03-27 22:15:00,
2013-03-27 17:20:00,44.1,21.3,30.19,WSW,247,5.1,8.5,40,0.00,,,0.00,WUHU21623XXSP,2013-03-27 22:20:00,
2013-03-27 17:25:00,44.2,22.0,30.19,West,270,3.8,8.5,41,0.00,,,0.00,WUHU21623XXSP,2013-03-27 22:25:00,
2013-03-27 17:30:00,43.9,21.6,30.19,SW,225,2.2,7.6,41,0.00,,,0.00,WUHU21623XXSP,2013-03-27 22:30:00,
2013-03-27 17:35:00,43.9,21.6,30.19,WNW,292,4.5,6.9,41,0.00,,,0.00,WUHU21623XXSP,2013-03-27 22:35:00,
2013-03-27 17:40:00,43.9,22.2,30.19,West,270,4.9,6.5,42,0.00,,,0.00,WUHU21623XXSP,2013-03-27 22:40:00,
2013-03-27 17:45:00,43.9,22.2,30.19,West,270,5.1,6.5,42,0.00,,,0.00,WUHU21623XXSP,2013-03-27 22:45:00,
2013-03-27 17:50:00,43.5,21.8,30.19,WSW,247,2.0,8.1,42,0.00,,,0.00,WUHU21623XXSP,2013-03-27 22:50:00,
2013-03-27 17:55:00,43.3,21.7,30.19,West,270,3.6,8.1,42,0.00,,,0.00,WUHU21623XXSP,2013-03-27 22:55:00,
2013-03-27 18:00:00,43.2,22.1,30.19,West,270,2.5,7.4,43,0.00,,,0.00,WUHU21623XXSP,2013-03-27 23:00:00,
2013-03-27 18:05:00,42.6,22.1,30.19,SW,225,4.5,6.7,44,0.00,,,0.00,WUHU21623XXSP,2013-03-27 23:05:00,
2013-03-27 18:10:00,42.6,22.6,30.19,WNW,292,0.0,5.1,45,0.00,,,0.00,WUHU21623XXSP,2013-03-27 23:10:00,
2013-03-27 18:15:00,42.6,22.1,30.19,WSW,247,3.6,5.6,44,0.00,,,0.00,WUHU21623XXSP,2013-03-27 23:15:00,
2013-03-27 18:20:00,42.4,21.9,30.19,WSW,247,4.9,5.6,44,0.00,,,0.00,WUHU21623XXSP,2013-03-27 23:20:00,
2013-03-27 18:25:00,42.4,22.5,30.19,WNW,292,2.5,4.9,45,0.00,,,0.00,WUHU21623XXSP,2013-03-27 23:25:00,
2013-03-27 18:30:00,42.4,22.5,30.19,West,270,2.0,4.9,45,0.00,,,0.00,WUHU21623XXSP,2013-03-27 23:30:00,
2013-03-27 18:35:00,42.1,22.1,30.19,West,270,0.0,6.7,45,0.00,,,0.00,WUHU21623XXSP,2013-03-27 23:35:00,
2013-03-27 18:40:00,41.7,21.8,30.19,WNW,292,0.0,6.7,45,0.00,,,0.00,WUHU21623XXSP,2013-03-27 23:40:00,
2013-03-27 18:45:00,41.5,22.1,30.19,West,270,1.8,4.7,46,0.00,,,0.00,WUHU21623XXSP,2013-03-27 23:45:00,
2013-03-27 18:50:00,41.0,21.6,30.19,WSW,247,1.8,3.6,46,0.00,,,0.00,WUHU21623XXSP,2013-03-27 23:50:00,
2013-03-27 18:55:00,40.5,21.7,30.19,West,270,3.8,3.8,47,0.00,,,0.00,WUHU21623XXSP,2013-03-27 23:55:00,
2013-03-27 19:00:00,39.7,21.5,30.19,West,270,2.2,3.8,48,0.00,,,0.00,WUHU21623XXSP,2013-03-28 00:00:00,
2013-03-27 19:05:00,39.4,21.2,30.19,West,270,0.0,3.8,48,0.00,,,0.00,WUHU21623XXSP,2013-03-28 00:05:00,
2013-03-27 19:10:00,39.0,21.4,30.19,SW,225,0.0,3.4,49,0.00,,,0.00,WUHU21623XXSP,2013-03-28 00:10:00,
2013-03-27 19:15:00,38.1,21.6,30.19,SSW,202,2.2,2.5,51,0.00,,,0.00,WUHU21623XXSP,2013-03-28 00:15:00,
2013-03-27 19:20:00,37.2,21.2,30.19,SSW,202,2.2,2.5,52,0.00,,,0.00,WUHU21623XXSP,2013-03-28 00:20:00,
2013-03-27 19:25:00,36.7,21.1,30.19,SSW,202,1.3,2.2,53,0.00,,,0.00,WUHU21623XXSP,2013-03-28 00:25:00,
2013-03-27 19:30:00,36.1,21.1,30.18,SSW,202,0.0,3.1,54,0.00,,,0.00,WUHU21623XXSP,2013-03-28 00:30:00,
2013-03-27 19:35:00,35.8,21.2,30.19,SSW,202,0.0,3.1,55,0.00,,,0.00,WUHU21623XXSP,2013-03-28 00:35:00,
2013-03-27 19:40:00,34.9,20.7,30.19,South,180,0.0,2.2,56,0.00,,,0.00,WUHU21623XXSP,2013-03-28 00:40:00,
2013-03-27 19:45:00,34.3,20.6,30.19,South,180,0.0,1.3,57,0.00,,,0.00,WUHU21623XXSP,2013-03-28 00:45:00,
2013-03-27 19:50:00,33.6,20.4,30.19,South,180,0.0,0.9,58,0.00,,,0.00,WUHU21623XXSP,2013-03-28 00:50:00,
2013-03-27 19:55:00,33.6,20.8,30.19,South,180,0.0,0.9,59,0.00,,,0.00,WUHU21623XXSP,2013-03-28 00:55:00,
2013-03-27 20:00:00,33.3,20.5,30.19,South,180,0.0,2.0,59,0.00,,,0.00,WUHU21623XXSP,2013-03-28 01:00:00,
2013-03-27 20:05:00,33.1,20.7,30.19,South,180,0.0,2.0,60,0.00,,,0.00,WUHU21623XXSP,2013-03-28 01:05:00,
2013-03-27 20:10:00,32.7,20.4,30.19,South,180,0.0,1.1,60,0.00,,,0.00,WUHU21623XXSP,2013-03-28 01:10:00,
2013-03-27 20:15:00,32.4,20.6,30.19,South,180,0.0,2.2,61,0.00,,,0.00,WUHU21623XXSP,2013-03-28 01:15:00,
2013-03-27 20:20:00,32.2,20.6,30.20,South,180,0.0,2.2,62,0.00,,,0.00,WUHU21623XXSP,2013-03-28 01:20:00,
2013-03-27 20:25:00,32.2,20.6,30.20,SSW,202,1.1,1.8,62,0.00,,,0.00,WUHU21623XXSP,2013-03-28 01:25:00,
2013-03-27 20:30:00,31.8,20.3,30.19,SSW,202,0.0,2.2,62,0.00,,,0.00,WUHU21623XXSP,2013-03-28 01:30:00,
2013-03-27 20:35:00,32.2,21.0,30.19,SSW,202,1.3,2.2,63,0.00,,,0.00,WUHU21623XXSP,2013-03-28 01:35:00,
2013-03-27 20:40:00,32.4,20.8,30.19,South,180,1.8,2.5,62,0.00,,,0.00,WUHU21623XXSP,2013-03-28 01:40:00,
2013-03-27 20:45:00,32.7,21.5,30.19,South,180,1.1,2.5,63,0.00,,,0.00,WUHU21623XXSP,2013-03-28 01:45:00,
2013-03-27 20:50:00,32.5,21.3,30.19,SSW,202,0.0,1.6,63,0.00,,,0.00,WUHU21623XXSP,2013-03-28 01:50:00,
2013-03-27 20:55:00,32.5,21.3,30.19,South,180,1.3,2.5,63,0.00,,,0.00,WUHU21623XXSP,2013-03-28 01:55:00,
2013-03-27 21:00:00,32.7,21.5,30.19,SSW,202,0.0,2.5,63,0.00,,,0.00,WUHU21623XXSP,2013-03-28 02:00:00,
2013-03-27 21:05:00,32.4,21.2,30.19,SSW,202,1.1,2.2,63,0.00,,,0.00,WUHU21623XXSP,2013-03-28 02:05:00,
2013-03-27 21:10:00,32.2,21.4,30.19,South,180,0.0,2.2,64,0.00,,,0.00,WUHU21623XXSP,2013-03-28 02:10:00,
2013-03-27 21:15:00,31.8,21.4,30.20,SSE,157,0.0,2.2,65,0.00,,,0.00,WUHU21623XXSP,2013-03-28 02:15:00,
2013-03-27 21:20:00,31.3,20.8,30.20,SSE,157,0.0,0.0,65,0.00,,,0.00,WUHU21623XXSP,2013-03-28 02:20:00,
2013-03-27 21:25:00,31.1,20.7,30.20,South,180,1.1,2.2,65,0.00,,,0.00,WUHU21623XXSP,2013-03-28 02:25:00,
2013-03-27 21:30:00,30.9,20.8,30.20,South,180,1.3,2.2,66,0.00,,,0.00,WUHU21623XXSP,2013-03-28 02:30:00,
2013-03-27 21:35:00,30.9,21.2,30.20,South,180,1.3,2.5,67,0.00,,,0.00,WUHU21623XXSP,2013-03-28 02:35:00,
2013-03-27 21:40:00,30.7,21.0,30.20,South,180,1.1,2.5,67,0.00,,,0.00,WUHU21623XXSP,2013-03-28 02:40:00,
2013-03-27 21:45:00,30.6,20.8,30.20,SSW,202,0.0,2.5,67,0.00,,,0.00,WUHU21623XXSP,2013-03-28 02:45:00,
2013-03-27 21:50:00,30.0,20.7,30.20,SSW,202,0.0,2.2,68,0.00,,,0.00,WUHU21623XXSP,2013-03-28 02:50:00,
2013-03-27 21:55:00,29.5,20.2,30.20,South,180,0.0,1.3,68,0.00,,,0.00,WUHU21623XXSP,2013-03-28 02:55:00,
2013-03-27 22:00:00,29.5,20.6,30.20,SSE,157,0.0,1.3,69,0.00,,,0.00,WUHU21623XXSP,2013-03-28 03:00:00,
2013-03-27 22:05:00,29.1,20.6,30.20,SSE,157,0.0,0.0,70,0.00,,,0.00,WUHU21623XXSP,2013-03-28 03:05:00,
2013-03-27 22:10:00,29.1,20.6,30.20,SSE,157,0.0,0.0,70,0.00,,,0.00,WUHU21623XXSP,2013-03-28 03:10:00,
2013-03-27 22:15:00,29.1,20.6,30.20,SSE,157,0.0,0.0,70,0.00,,,0.00,WUHU21623XXSP,2013-03-28 03:15:00,
2013-03-27 22:20:00,28.9,20.4,30.20,SSE,157,0.0,0.0,70,0.00,,,0.00,WUHU21623XXSP,2013-03-28 03:20:00,
2013-03-27 22:25:00,28.9,20.4,30.20,SSE,157,0.0,0.0,70,0.00,,,0.00,WUHU21623XXSP,2013-03-28 03:25:00,
2013-03-27 22:30:00,28.9,20.7,30.20,SSE,157,0.0,0.0,71,0.00,,,0.00,WUHU21623XXSP,2013-03-28 03:30:00,
2013-03-27 22:35:00,28.6,20.4,30.20,SSE,157,0.0,0.0,71,0.00,,,0.00,WUHU21623XXSP,2013-03-28 03:35:00,
2013-03-27 22:40:00,28.2,20.4,30.20,SSE,157,0.0,0.0,72,0.00,,,0.00,WUHU21623XXSP,2013-03-28 03:40:00,
2013-03-27 22:45:00,28.0,20.2,30.20,SSE,157,0.0,0.0,72,0.00,,,0.00,WUHU21623XXSP,2013-03-28 03:45:00,
2013-03-27 22:50:00,28.0,20.2,30.21,SSE,157,0.0,0.0,72,0.00,,,0.00,WUHU21623XXSP,2013-03-28 03:50:00,
2013-03-27 22:55:00,28.2,20.4,30.21,SSE,157,0.0,0.0,72,0.00,,,0.00,WUHU21623XXSP,2013-03-28 03:55:00,
2013-03-27 23:00:00,28.0,20.5,30.21,SE,135,0.0,0.0,73,0.00,,,0.00,WUHU21623XXSP,2013-03-28 04:00:00,
2013-03-27 23:05:00,27.7,20.1,30.21,SE,135,0.0,0.0,73,0.00,,,0.00,WUHU21623XXSP,2013-03-28 04:05:00,
2013-03-27 23:10:00,27.5,20.3,30.21,SE,135,0.0,0.0,74,0.00,,,0.00,WUHU21623XXSP,2013-03-28 04:10:00,
2013-03-27 23:15:00,27.5,20.3,30.21,SE,135,0.0,0.0,74,0.00,,,0.00,WUHU21623XXSP,2013-03-28 04:15:00,
2013-03-27 23:20:00,27.3,20.1,30.21,SE,135,0.0,0.0,74,0.00,,,0.00,WUHU21623XXSP,2013-03-28 04:20:00,
2013-03-27 23:25:00,27.5,20.3,30.21,SSE,157,0.0,0.0,74,0.00,,,0.00,WUHU21623XXSP,2013-03-28 04:25:00,
2013-03-27 23:30:00,27.5,20.6,30.21,SE,135,0.0,0.0,75,0.00,,,0.00,WUHU21623XXSP,2013-03-28 04:30:00,
2013-03-27 23:35:00,27.1,20.2,30.21,SE,135,0.0,0.0,75,0.00,,,0.00,WUHU21623XXSP,2013-03-28 04:35:00,
2013-03-27 23:40:00,27.0,20.3,30.21,SE,135,0.0,0.0,76,0.00,,,0.00,WUHU21623XXSP,2013-03-28 04:40:00,
2013-03-27 23:45:00,27.0,20.3,30.21,SE,135,0.0,0.0,76,0.00,,,0.00,WUHU21623XXSP,2013-03-28 04:45:00,
2013-03-27 23:50:00,27.1,20.5,30.21,SSE,157,0.0,0.0,76,0.00,,,0.00,WUHU21623XXSP,2013-03-28 04:50:00,
2013-03-27 23:55:00,27.1,20.5,30.22,SSE,157,0.0,0.0,76,0.00,,,0.00,WUHU21623XXSP,2013-03-28 04:55:00,